OIHH  Hamadan Airport

Add Bookmark

Hamadan, Iran

Status IATA
Operational HDM
Latitude Longitude
34° 52' 9" N 48° 33' 9" E
34.869202 48.552502
Local (DST + 5) UTC (GMT + 4)
Aug 1, 2014 12:15 Aug 1, 2014 07:45
Sunrise-Sunset Local UTC
Begin Civil Twilight 05:56 01:26
Sunrise 06:24 01:54
Sunset 08:19 15:49
End Civil Twilight 08:47 16:17

Current Weather

METAR Observed VFR
OIHH 010700Z 12006KT CAVOK 31/04 Q1015 Fri, Aug 1, 2014 @ 07:00 UTC
(45 Minutes ago)
Visual Flight Rules

Decoded METAR

Wind Visibility Clouds Conditions
120° at 6 knots (11 kph) 10 km or more
  • Clear skies
  • No significant weather
Temperatures Readings Precipitation
Current Temp 31°C (88°F)
Dewpoint 4°C (39°F)
Humidity 18%
Altimeter 29.97"Hg
Sea Level Pressure 1015mb
Field Elevation 5764.44'
None Recorded

Additional weather within a 92.6km radius of OIHH

Map ICAO Location
OIHM 69.5km S (160°)

24 Hour Weather History

Loading
-

24 Hour Weather Graphs

Loading
-

CheckWX.com is intended as a tool to help pilots better visualize weather data. It is not intended as a substitute for an official weather briefing obtained from a Flight Service Station. CheckWX.com does not meet the FAA requirements for an official pre-flight weather briefing. Therefore, it's important that pilots still call and obtain an official FSS pre-flight weather briefing.